Location: Unspecified
(0.0000°N, 0.0000°E)
Time: 22:42:20
(UTC+00:00)

Envisat - Pass Details

Date: 19 July 2019
Orbit: 764 x 766 km, 98.1° (Epoch: 22 July)

Event Time Altitude Azimuth Distance (km) Brightness Sun altitude
Rises 05:39:17 0° 49° (NE) 3,217 7.8 -6.3°
Reaches altitude 10° 05:42:53 10° 76° (ENE) 2,295 7.3 -5.5°
Maximum altitude 05:45:09 13° 103° (ESE) 2,089 6.2 -4.9°
Drops below altitude 10° 05:47:26 10° 130° (SE) 2,300 5.9 -4.4°
Sets 05:51:02 0° 156° (SSE) 3,229 6.3 -3.6°
